Location: McCloud Nature Park
(39.8272°N, 86.6824°W)
Time: 07:13:33
(UTC-06:00)

Amateur Radio Satellites - All Passes

Search period start: 01 February 2015 06:43
Search period end: 02 February 2015 06:43
Location: McCloud Nature Park, 39.8272°N, 86.6824°W

Satellite Date Start Highest point End Downlink Frequencies (MHz)
Time Altitude Azimuth
CUBESAT XI-V 01 Feb 06:58:02 07:00:38 14° 271° (W) 07:03:02 437.345
BRITE-PL 01 Feb 07:29:01 07:33:21 23° 90° (E) 07:37:39 437.365/2234.400
YUBILEINY 01 Feb 07:29:42 07:37:33 37° 273° (W) 07:45:14 435.215
CUTE 1.7 + AOD 2 01 Feb 07:37:29 07:39:37 14° 90° (E) 07:41:57 437.475
PHONESAT 2.4 01 Feb 07:45:24 07:48:52 47° 159° (SSE) 07:52:21 2401.200-2431.200
Cubesat XI-IV 01 Feb 07:56:34 07:59:00 13° 299° (WNW) 08:01:10 437.490
SEEDS 01 Feb 08:02:35 08:05:53 23° 94° (E) 08:09:16 437.485
VERMONT LUNAR 01 Feb 08:05:02 08:08:30 81° 170° (S) 08:12:00 437.305
CINEMA 3 01 Feb 08:06:39 08:08:23 12° 87° (E) 08:10:23 145.822/145.860
RS-15 01 Feb 08:11:45 08:19:13 19° 349° (N) 08:26:40 29.354- 29.394
UNISAT 6 01 Feb 08:12:47 08:14:10 11° 63° (ENE) 08:15:49 437.425
HO-68 01 Feb 08:20:48 08:27:44 52° 100° (E) 08:34:42 435.675
COMPASS 1 01 Feb 08:24:01 08:27:47 33° 96° (E) 08:31:34 437.405
DELFI C3 01 Feb 08:26:32 08:27:23 11° 89° (E) 08:28:30 145.870
SO-50 01 Feb 08:35:32 08:39:34 33° 114° (ESE) 08:43:48 436.795
QB50P2 01 Feb 08:41:51 08:43:31 12° 65° (ENE) 08:45:25 145.880/145.840
DOVE 4 01 Feb 08:41:51 08:46:54 55° 99° (E) 08:51:40 437.250
BEESAT 2 01 Feb 08:44:53 08:47:07 14° 42° (NE) 08:49:26 435.950
GOMX 1 01 Feb 08:45:03 08:50:29 83° 104° (ESE) 08:55:33 467.674
ANTELSAT 01 Feb 08:46:21 08:50:10 25° 69° (ENE) 08:54:02 437.575/2403.000
AAUSAT CUBESAT 2 01 Feb 08:47:32 08:51:38 55° 100° (E) 08:55:41 437.432
CANX-2 01 Feb 08:48:01 08:52:15 79° 284° (WNW) 08:56:27 2200.000
QB50P1 01 Feb 08:49:18 08:51:36 15° 66° (ENE) 08:54:06 145.935-145.965
ZACube-1 01 Feb 08:49:21 08:51:14 13° 88° (E) 08:53:19 437.345
TIGRISAT 01 Feb 08:51:56 08:55:54 28° 70° (ENE) 08:59:55 435.000
DX 1 01 Feb 08:52:03 08:54:45 16° 92° (E) 08:57:38 434.975-435.025
BEESAT 3 01 Feb 08:55:04 08:58:02 19° 45° (NE) 09:01:02 437.485
CUBEBUG 2 01 Feb 08:55:07 08:58:37 23° 92° (E) 09:02:09 437.445
FUNcube-1 01 Feb 08:59:27 09:02:12 17° 90° (E) 09:05:03 145.935
POLYITAN 1 01 Feb 09:05:16 09:08:33 22° 69° (ENE) 09:11:58 437.675
BRITE-PL 01 Feb 09:06:44 09:12:08 46° 289° (WNW) 09:17:13 437.365/2234.400
CUTE 1.7 + AOD 2 01 Feb 09:11:50 09:15:53 45° 287° (WNW) 09:19:54 437.475
POPSAT HIP 1 01 Feb 09:22:51 09:26:40 33° 71° (ENE) 09:30:35 437.405
DUCHIFAT 1 01 Feb 09:23:29 09:27:18 33° 71° (ENE) 09:31:12 145.980
PHONESAT 2.4 01 Feb 09:23:45 09:27:22 81° 355° (N) 09:31:00 2401.200-2431.200
Oscar 11 01 Feb 09:24:48 09:29:07 70° 101° (E) 09:33:23 145.826/435.025
UWE-3 01 Feb 09:27:33 09:31:48 43° 98° (E) 09:35:55 435.000/436.395/437.385
AISAT 01 Feb 09:32:14 09:35:12 18° 92° (E) 09:38:20 437.250
SEEDS 01 Feb 09:38:09 09:41:45 27° 289° (WNW) 09:45:16 437.485
CINEMA 3 01 Feb 09:41:28 09:46:14 64° 285° (WNW) 09:50:44 145.822/145.860
GONETS M04 01 Feb 09:42:58 09:45:02 11° 54° (NE) 09:47:50
VERMONT LUNAR 01 Feb 09:43:10 09:46:39 80° 5° (N) 09:50:10 437.305
UNISAT 6 01 Feb 09:45:42 09:50:25 79° 258° (WSW) 09:55:07 437.425
ESTCUBE 1 01 Feb 09:47:31 09:48:23 11° 88° (E) 09:49:34 437.505/2401.250
CUBEBUG 1 01 Feb 09:57:35 09:59:32 13° 89° (E) 10:01:44 437.445
VELOX 1 01 Feb 09:57:53 10:01:55 32° 96° (E) 10:05:59 145.980
NANOSAT C BR1 01 Feb 09:58:22 10:02:38 85° 77° (ENE) 10:06:58 145.865
DELFI C3 01 Feb 09:59:06 10:03:04 54° 286° (WNW) 10:06:59 145.870
COMPASS 1 01 Feb 10:00:18 10:03:20 19° 291° (WNW) 10:06:15 437.405
HUMSAT D 01 Feb 10:00:21 10:04:23 43° 98° (E) 10:08:22 437.325/437.525
UKube-1 01 Feb 10:02:00 10:06:23 85° 287° (WNW) 10:10:45 .
HO-68 01 Feb 10:09:05 10:15:12 31° 297° (WNW) 10:21:10 435.675
QB50P2 01 Feb 10:14:45 10:19:00 61° 259° (W) 10:23:17 145.880/145.840
SO-50 01 Feb 10:16:06 10:20:09 29° 312° (NW) 10:24:17 436.795
BUGSAT 1 01 Feb 10:16:51 10:20:58 77° 257° (WSW) 10:25:10 437.445
DOVE 4 01 Feb 10:20:46 10:24:12 18° 296° (WNW) 10:27:21 437.250
BEESAT 2 01 Feb 10:21:41 10:25:51 70° 241° (WSW) 10:29:56 435.950
ANTELSAT 01 Feb 10:22:37 10:26:52 32° 264° (W) 10:31:03 437.575/2403.000
QB50P1 01 Feb 10:22:59 10:27:08 49° 261° (W) 10:31:20 145.935-145.965
ZACube-1 01 Feb 10:23:46 10:28:03 52° 286° (WNW) 10:32:13 437.345
AAUSAT CUBESAT 2 01 Feb 10:25:03 10:26:53 12° 294° (WNW) 10:28:31 437.432
GOMX 1 01 Feb 10:25:19 10:27:51 13° 299° (WNW) 10:30:04 467.674
DX 1 01 Feb 10:27:05 10:31:16 43° 288° (WNW) 10:35:25 434.975-435.025
RS-15 01 Feb 10:28:29 10:37:04 25° 24° (NNE) 10:46:11 29.354- 29.394
TIGRISAT 01 Feb 10:28:29 10:32:36 29° 265° (W) 10:36:39 435.000
CUBEBUG 2 01 Feb 10:31:24 10:35:26 31° 290° (WNW) 10:39:16 437.445
BEESAT 3 01 Feb 10:32:27 10:36:26 45° 243° (WSW) 10:40:21 437.485
FUNcube-1 01 Feb 10:34:41 10:38:49 40° 288° (WNW) 10:42:48 145.935
AIST 2 01 Feb 10:35:08 10:39:25 66° 56° (ENE) 10:43:36 435.215
POLYITAN 1 01 Feb 10:40:30 10:44:22 31° 264° (W) 10:48:13 437.675
50 SAT 01 Feb 10:40:41 10:44:45 82° 284° (WNW) 10:48:44 437.505
AIST 1 01 Feb 10:56:14 11:00:26 60° 280° (W) 11:04:41
POPSAT HIP 1 01 Feb 10:59:27 11:02:41 20° 267° (W) 11:05:51 437.405
DUCHIFAT 1 01 Feb 11:00:04 11:03:16 20° 267° (W) 11:06:24 145.980
PHONESAT 2.4 01 Feb 11:02:21 11:05:59 81° 195° (SSW) 11:09:37 2401.200-2431.200
Oscar 11 01 Feb 11:03:40 11:04:47 11° 296° (WNW) 11:05:40 145.826/435.025
SPROUT 01 Feb 11:04:44 11:07:32 17° 91° (E) 11:10:28 437.525
UWE-3 01 Feb 11:05:04 11:08:02 17° 294° (WNW) 11:10:48 435.000/436.395/437.385
AISAT 01 Feb 11:07:48 11:12:05 41° 288° (WNW) 11:16:17 437.250
VERMONT LUNAR 01 Feb 11:21:19 11:24:41 46° 201° (SSW) 11:28:03 437.305
ESTCUBE 1 01 Feb 11:21:19 11:25:51 69° 285° (WNW) 11:30:22 437.505/2401.250
Oscar 19 01 Feb 11:23:03 11:26:51 22° 66° (ENE) 11:30:48 437.125/150
PCSat 01 Feb 11:23:52 11:28:12 24° 48° (NE) 11:32:38 145.827
TISAT 1 01 Feb 11:29:15 11:33:03 30° 96° (E) 11:36:52 437.305
CUBEBUG 1 01 Feb 11:31:58 11:36:20 55° 286° (WNW) 11:40:41 437.445
VELOX 1 01 Feb 11:34:47 11:38:22 23° 292° (WNW) 11:41:51 145.980
GONETS M04 01 Feb 11:35:35 11:44:12 63° 78° (ENE) 11:52:49
HUMSAT D 01 Feb 11:37:18 11:39:52 15° 294° (WNW) 11:42:16 437.325/437.525
ITAMSAT 1 01 Feb 11:48:35 11:50:49 13° 62° (ENE) 11:53:20 435.822/435.867
BEESAT 01 Feb 12:09:11 12:11:09 13° 89° (E) 12:13:22 436.000
ITUPSAT 1 01 Feb 12:14:49 12:17:20 15° 90° (E) 12:20:04 437.325
AIST 2 01 Feb 12:16:05 12:17:32 11° 251° (WSW) 12:18:46 435.215
SPROUT 01 Feb 12:39:46 12:43:51 40° 288° (WNW) 12:47:53 437.525
RS-15 01 Feb 12:40:57 12:52:16 67° 53° (NE) 13:04:07 29.354- 29.394
PHONESAT 2.4 01 Feb 12:41:12 12:44:18 26° 208° (SSW) 12:47:23 2401.200-2431.200
DANDE 01 Feb 13:00:23 13:01:13 10° 52° (NE) 13:02:24 436.750
Oscar 19 01 Feb 13:00:56 13:05:56 47° 261° (W) 13:10:56 437.125/150
VERMONT LUNAR 01 Feb 13:01:07 13:02:18 11° 215° (SW) 13:03:22 437.305
Gurwin Techsat 1B 01 Feb 13:02:55 13:07:54 44° 71° (ENE) 13:12:57 435.225
TISAT 1 01 Feb 13:05:21 13:08:45 22° 291° (WNW) 13:12:01 437.305
PCSat 01 Feb 13:06:41 13:11:58 51° 247° (WSW) 13:17:11 145.827
CUSAT 1 01 Feb 13:09:16 13:11:55 14° 56° (ENE) 13:14:31 437.405
AO-7 01 Feb 13:19:36 13:25:36 23° 55° (NE) 13:31:52 29.400- 29.500
ITAMSAT 1 01 Feb 13:24:34 13:29:45 80° 258° (WSW) 13:34:58 435.822/435.867
SWISSCUBE 01 Feb 13:29:38 13:34:26 84° 283° (WNW) 13:39:14 437.505
GONETS M04 01 Feb 13:33:31 13:40:29 27° 276° (W) 13:47:08
BEESAT 01 Feb 13:44:47 13:49:32 64° 286° (WNW) 13:54:15 436.000
ITUPSAT 1 01 Feb 13:50:58 13:55:41 57° 287° (WNW) 14:00:22 437.325
HORYU 2 01 Feb 13:57:10 14:01:25 44° 72° (ENE) 14:05:43 437.375
STARS 01 Feb 14:30:29 14:34:50 51° 100° (E) 14:39:08 437.465
AUBIESAT-1 01 Feb 14:36:16 14:37:48 13° 98° (E) 14:39:31 437.475
DANDE 01 Feb 14:40:15 14:46:30 82° 78° (ENE) 14:51:01 436.750
Gurwin Techsat 1B 01 Feb 14:43:59 14:48:08 22° 268° (W) 14:52:09 435.225
KKS-1 01 Feb 14:44:52 14:49:21 71° 285° (WNW) 14:53:47 437.445
CUSAT 1 01 Feb 14:50:28 14:56:07 64° 265° (W) 15:00:15 437.405
RS-15 01 Feb 14:54:05 15:04:11 36° 252° (WSW) 15:14:18 29.354- 29.394
AO-7 01 Feb 15:09:11 15:17:34 83° 253° (WSW) 15:26:00 29.400- 29.500
O/OREOS (USA 219) 01 Feb 15:23:27 15:27:57 75° 292° (WNW) 15:32:30 437.305
JAS-2 01 Feb 15:29:50 15:35:10 65° 74° (ENE) 15:40:20 435.910
HORYU 2 01 Feb 15:35:23 15:38:21 17° 268° (W) 15:41:10 437.375
M-CUBED/EXP-1 PRIME 01 Feb 15:39:27 15:42:48 75° 289° (WNW) 15:46:18 437.505
Cubesat XI-IV 01 Feb 15:57:58 16:01:15 17° 63° (ENE) 16:04:46 437.490
STARS 01 Feb 16:08:18 16:10:56 15° 295° (WNW) 16:13:24 437.465
AUBIESAT-1 01 Feb 16:09:51 16:12:54 32° 292° (WNW) 16:16:02 437.475
CUTE-I 01 Feb 16:15:50 16:20:00 25° 66° (ENE) 16:24:19 437.470
MOZHAYETS 4 01 Feb 16:49:56 16:54:31 80° 284° (WNW) 16:59:05
AO-7 01 Feb 17:06:59 17:11:45 15° 273° (W) 17:15:55 29.400- 29.500
SO-50 01 Feb 17:07:25 17:11:40 29° 47° (NE) 17:15:59 436.795
CUBESAT XI-V 01 Feb 17:17:19 17:19:47 15° 89° (E) 17:22:29 437.345
JAS-2 01 Feb 17:18:11 17:20:55 13° 271° (W) 17:23:16 435.910
PRISM 01 Feb 17:22:49 17:25:51 20° 94° (E) 17:29:00 437.425
Cubesat XI-IV 01 Feb 17:35:38 17:40:54 63° 259° (WSW) 17:46:13 437.490
CUTE-I 01 Feb 17:54:51 17:59:52 42° 262° (W) 18:04:55 437.470
GOMX 1 01 Feb 18:18:19 18:19:29 11° 60° (ENE) 18:20:58 467.674
CUTE 1.7 + AOD 2 01 Feb 18:31:55 18:32:30 10° 64° (ENE) 18:33:20 437.475
YUBILEINY 01 Feb 18:32:14 18:40:35 56° 91° (E) 18:49:02 435.215
BRITE-PL 01 Feb 18:38:51 18:42:56 24° 66° (ENE) 18:47:22 437.365/2234.400
SO-50 01 Feb 18:47:46 18:52:20 38° 245° (WSW) 18:56:51 436.795
HO-68 01 Feb 18:48:49 18:55:08 37° 65° (ENE) 19:01:35 435.675
STRAND 1 01 Feb 18:52:24 18:57:35 90° 292° (WNW) 19:02:45 437.568
CUBESAT XI-V 01 Feb 18:53:02 18:57:39 55° 286° (WNW) 19:02:14 437.345
SEEDS 01 Feb 18:55:05 18:57:39 16° 67° (ENE) 19:00:22 437.485
SRMSAT 01 Feb 18:56:57 18:57:34 10° 181° (S) 18:58:10 437.500
PRISM 01 Feb 18:57:45 19:01:27 31° 289° (WNW) 19:05:09 437.425
CINEMA 3 01 Feb 19:07:51 19:09:59 13° 63° (ENE) 19:12:22 145.822/145.860
COMPASS 1 01 Feb 19:15:23 19:18:37 22° 69° (ENE) 19:21:56 437.405
AAUSAT CUBESAT 2 01 Feb 19:38:05 19:41:53 34° 72° (ENE) 19:45:42 437.432
CANX-2 01 Feb 19:40:05 19:44:20 67° 76° (ENE) 19:48:35 2200.000
ZACube-1 01 Feb 19:45:44 19:47:11 12° 64° (ENE) 19:48:52 437.345
DOVE 4 01 Feb 19:46:00 19:50:57 52° 73° (ENE) 19:56:07 437.250
DX 1 01 Feb 19:47:56 19:50:09 14° 65° (ENE) 19:52:34 434.975-435.025
GOMX 1 01 Feb 19:51:35 19:56:44 80° 76° (ENE) 20:02:13 467.674
CUBEBUG 2 01 Feb 19:52:50 19:56:16 21° 67° (ENE) 19:59:51 437.445
FUNcube-1 01 Feb 19:55:19 19:57:43 15° 65° (ENE) 20:00:20 145.935
CUTE 1.7 + AOD 2 01 Feb 20:03:39 20:07:56 72° 259° (WSW) 20:12:13 437.475
ISS 01 Feb 20:04:53 20:08:07 72° 142° (SE) 20:11:25 145.825
BRITE-PL 01 Feb 20:16:15 20:21:09 43° 264° (W) 20:26:24 437.365/2234.400
Oscar 11 01 Feb 20:18:47 20:22:57 49° 74° (ENE) 20:27:10 145.826/435.025
UWE-3 01 Feb 20:23:48 20:28:01 35° 71° (ENE) 20:32:18 435.000/436.395/437.385
SEEDS 01 Feb 20:29:09 20:33:12 42° 262° (W) 20:37:15 437.485
YUBILEINY 01 Feb 20:30:21 20:37:55 31° 292° (WNW) 20:45:19 435.215
AISAT 01 Feb 20:30:23 20:32:59 16° 65° (ENE) 20:35:45 437.250
STRAND 1 01 Feb 20:34:21 20:36:08 11° 299° (WNW) 20:37:36 437.568
HO-68 01 Feb 20:36:02 20:42:47 43° 262° (W) 20:49:29 435.675
CINEMA 3 01 Feb 20:41:36 20:46:35 78° 258° (WSW) 20:51:40 145.822/145.860
DELFI C3 01 Feb 20:46:15 20:50:20 82° 75° (ENE) 20:54:25 145.870
COMPASS 1 01 Feb 20:50:29 20:54:13 29° 264° (W) 20:57:54 437.405
HUMSAT D 01 Feb 20:51:49 20:55:36 30° 71° (ENE) 20:59:25 437.325/437.525
CUBEBUG 1 01 Feb 20:54:54 20:55:47 11° 63° (ENE) 20:56:54 437.445
VELOX 1 01 Feb 20:55:18 20:59:01 27° 69° (ENE) 21:02:50 145.980
UKube-1 01 Feb 20:56:08 21:00:27 75° 74° (ENE) 21:04:49 .
AIST 1 01 Feb 21:04:25 21:08:14 29° 75° (ENE) 21:12:07
AAUSAT CUBESAT 2 01 Feb 21:14:39 21:17:41 19° 268° (W) 21:20:35 437.432
ZACube-1 01 Feb 21:18:24 21:23:01 75° 258° (WSW) 21:27:39 437.345
DX 1 01 Feb 21:21:45 21:26:01 54° 260° (W) 21:30:19 434.975-435.025
DOVE 4 01 Feb 21:25:26 21:29:06 19° 271° (W) 21:32:39 437.250
50 SAT 01 Feb 21:27:05 21:31:06 54° 75° (ENE) 21:35:09 437.505
CUBEBUG 2 01 Feb 21:28:10 21:32:42 42° 262° (W) 21:37:16 437.445
FUNcube-1 01 Feb 21:29:07 21:33:39 58° 260° (W) 21:38:13 145.935
GOMX 1 01 Feb 21:33:34 21:35:41 12° 275° (W) 21:37:30 467.674
UNISAT 6 01 Feb 21:39:40 21:43:04 22° 93° (E) 21:46:30 437.425
ISS 01 Feb 21:42:26 21:44:55 19° 339° (NNW) 21:47:24 145.825
NANOSAT C BR1 01 Feb 21:45:55 21:48:16 15° 90° (E) 21:50:49 145.865
Oscar 11 01 Feb 21:57:06 21:59:30 14° 270° (W) 22:01:41 145.826/435.025
SPROUT 01 Feb 21:59:32 22:01:28 13° 65° (ENE) 22:03:37 437.525
UWE-3 01 Feb 22:00:51 22:04:40 23° 267° (W) 22:08:21 435.000/436.395/437.385
BUGSAT 1 01 Feb 22:01:12 22:03:58 17° 92° (E) 22:06:51 437.445
QB50P2 01 Feb 22:01:44 22:05:08 23° 94° (E) 22:08:36 145.880/145.840
AISAT 01 Feb 22:04:55 22:09:15 50° 261° (W) 22:13:37 437.250
QB50P1 01 Feb 22:09:27 22:13:08 27° 95° (E) 22:16:50 145.935-145.965
ANTELSAT 01 Feb 22:15:19 22:19:40 56° 100° (E) 22:23:54 437.575/2403.000
ESTCUBE 1 01 Feb 22:20:11 22:24:39 82° 257° (WSW) 22:29:10 437.505/2401.250
TIGRISAT 01 Feb 22:20:40 22:25:03 63° 101° (E) 22:29:20 435.000
TISAT 1 01 Feb 22:21:34 22:24:47 22° 68° (ENE) 22:28:08 437.305
POLYITAN 1 01 Feb 22:26:37 22:30:45 44° 98° (E) 22:34:52 437.675
CUBEBUG 1 01 Feb 22:27:16 22:31:36 73° 257° (WSW) 22:36:01 437.445
HUMSAT D 01 Feb 22:27:54 22:31:25 23° 266° (W) 22:34:51 437.325/437.525
VELOX 1 01 Feb 22:31:48 22:35:35 26° 265° (W) 22:39:19 145.980
AIST 1 01 Feb 22:42:23 22:45:47 22° 271° (W) 22:49:04
POPSAT HIP 1 01 Feb 22:44:21 22:48:40 70° 101° (ESE) 22:52:56 437.405
DUCHIFAT 1 01 Feb 22:44:37 22:48:55 70° 101° (ESE) 22:53:10 145.980
GONETS M04 01 Feb 22:45:23 22:48:17 13° 77° (ENE) 22:51:55
SWISSCUBE 01 Feb 23:01:35 23:02:57 11° 62° (ENE) 23:04:34 437.505
50 SAT 01 Feb 23:05:07 23:06:38 11° 271° (W) 23:07:54 437.505
BEESAT 01 Feb 23:15:19 23:17:50 15° 64° (ENE) 23:20:33 436.000
UNISAT 6 01 Feb 23:16:02 23:19:57 31° 290° (WNW) 23:23:43 437.425
NANOSAT C BR1 01 Feb 23:20:20 23:24:28 45° 287° (WNW) 23:28:31 145.865
ITUPSAT 1 01 Feb 23:21:21 23:24:14 17° 65° (ENE) 23:27:19 437.325
ISS 01 Feb 23:21:33 23:22:24 11° 358° (N) 23:23:15 145.825
SPROUT 01 Feb 23:32:54 23:37:08 57° 260° (W) 23:41:25 437.525
BUGSAT 1 01 Feb 23:35:38 23:39:40 39° 288° (WNW) 23:43:38 437.445
QB50P2 01 Feb 23:37:20 23:41:06 29° 290° (WNW) 23:44:46 145.880/145.840
QB50P1 01 Feb 23:45:25 23:48:57 25° 291° (WNW) 23:52:23 145.935-145.965
ANTELSAT 01 Feb 23:53:48 23:56:02 13° 296° (WNW) 23:58:02 437.575/2403.000
O/OREOS (USA 219) 01 Feb 23:55:47 23:59:02 19° 55° (NE) 00:02:24 437.305
TISAT 1 01 Feb 23:56:41 00:00:29 31° 264° (W) 00:04:16 437.305
TIGRISAT 01 Feb 23:59:30 00:01:19 12° 296° (WNW) 00:02:56 435.000
POLYITAN 1 02 Feb 00:03:37 00:06:23 16° 294° (WNW) 00:08:59 437.675
BEESAT 2 02 Feb 00:16:14 00:19:39 26° 114° (ESE) 00:23:11 435.950
POPSAT HIP 1 02 Feb 00:22:52 00:24:03 11° 296° (WNW) 00:25:01 437.405
DUCHIFAT 1 02 Feb 00:23:04 00:24:16 11° 296° (WNW) 00:25:13 145.980
BEESAT 3 02 Feb 00:25:44 00:29:31 38° 116° (ESE) 00:33:24 437.485
AIST 2 02 Feb 00:34:06 00:36:46 17° 111° (ESE) 00:39:38 435.215
GONETS M04 02 Feb 00:35:07 00:43:49 74° 94° (E) 00:52:32
SWISSCUBE 02 Feb 00:35:29 00:40:14 80° 258° (WSW) 00:45:01 437.505
BEESAT 02 Feb 00:50:33 00:55:16 61° 259° (W) 00:59:59 436.000
ITUPSAT 1 02 Feb 00:57:07 01:01:46 53° 260° (W) 01:06:27 437.325
ISS 02 Feb 00:57:43 00:59:56 17° 18° (NNE) 01:02:11 145.825
Oscar 19 02 Feb 01:13:03 01:18:11 66° 101° (E) 01:23:16 437.125/150
Gurwin Techsat 1B 02 Feb 01:20:46 01:24:19 19° 91° (E) 01:28:04 435.225
AUBIESAT-1 02 Feb 01:24:14 01:26:53 19° 65° (ENE) 01:29:30 437.475
STARS 02 Feb 01:26:50 01:31:00 41° 72° (ENE) 01:35:14 437.465
O/OREOS (USA 219) 02 Feb 01:34:21 01:38:44 44° 253° (WSW) 01:43:05 437.305
ITAMSAT 1 02 Feb 01:38:23 01:43:15 39° 97° (E) 01:48:09 435.822/435.867
KKS-1 02 Feb 01:42:06 01:46:36 87° 252° (WSW) 01:51:08 437.445
BEESAT 2 02 Feb 01:54:09 01:57:48 29° 310° (NW) 02:01:28 435.950
BEESAT 3 02 Feb 02:04:35 02:07:49 21° 314° (NW) 02:11:01 437.485
PCSat 02 Feb 02:05:31 02:09:35 23° 108° (ESE) 02:13:49 145.827
DANDE 02 Feb 02:06:37 02:12:36 23° 84° (E) 02:19:01 436.750
AIST 2 02 Feb 02:10:59 02:15:05 45° 306° (NW) 02:19:14 435.215
CUSAT 1 02 Feb 02:12:49 02:19:32 29° 87° (E) 02:26:27 437.405
M-CUBED/EXP-1 PRIME 02 Feb 02:28:04 02:31:59 61° 254° (WSW) 02:35:35 437.505
ISS 02 Feb 02:33:34 02:36:52 79° 36° (NE) 02:40:09 145.825
GONETS M04 02 Feb 02:34:55 02:41:42 23° 296° (WNW) 02:48:08
Oscar 19 02 Feb 02:54:00 02:57:03 16° 297° (WNW) 02:59:52 437.125/150
AUBIESAT-1 02 Feb 02:58:17 03:01:43 28° 257° (WSW) 03:04:54 437.475
Gurwin Techsat 1B 02 Feb 02:59:31 03:04:41 53° 288° (WNW) 03:09:50 435.225
RS-15 02 Feb 03:04:15 03:14:10 44° 110° (ESE) 03:24:17 29.354- 29.394
STARS 02 Feb 03:04:40 03:07:43 17° 268° (W) 03:10:38 437.465
AO-7 02 Feb 03:12:09 03:19:33 35° 96° (E) 03:27:01 29.400- 29.500
ITAMSAT 1 02 Feb 03:18:18 03:22:35 26° 293° (WNW) 03:26:46 435.822/435.867
HORYU 2 02 Feb 03:25:42 03:30:10 81° 284° (WNW) 03:34:34 437.375
DANDE 02 Feb 03:46:52 03:55:20 82° 280° (W) 04:03:56 436.750
PCSat 02 Feb 03:47:29 03:52:43 48° 304° (NW) 03:57:59 145.827
MOZHAYETS 4 02 Feb 03:50:58 03:55:34 87° 74° (ENE) 04:00:11
CUSAT 1 02 Feb 03:53:50 04:02:09 65° 283° (WNW) 04:10:19 437.405
ISS 02 Feb 04:12:11 04:12:56 10° 231° (SW) 04:13:34 145.825
PRISM 02 Feb 04:13:52 04:16:02 14° 66° (ENE) 04:18:21 437.425
CUBESAT XI-V 02 Feb 04:20:58 04:23:10 14° 65° (ENE) 04:25:35 437.345
JAS-2 02 Feb 04:22:34 04:28:25 64° 101° (ESE) 04:35:03 435.910
STRAND 1 02 Feb 04:31:17 04:33:59 15° 63° (ENE) 04:36:55 437.568
YUBILEINY 02 Feb 04:43:44 04:50:41 26° 66° (ENE) 04:57:56 435.215
AO-7 02 Feb 05:04:38 05:12:37 51° 295° (WNW) 05:20:29 29.400- 29.500
RS-15 02 Feb 05:15:42 05:26:22 54° 312° (NW) 05:37:07 29.354- 29.394
DANDE 02 Feb 05:34:11 05:40:10 19° 300° (WNW) 05:45:38 436.750
CUSAT 1 02 Feb 05:42:26 05:46:49 14° 302° (WNW) 05:50:34 437.405
VERMONT LUNAR 02 Feb 05:45:24 05:48:01 20° 150° (SSE) 05:50:41 437.305
PRISM 02 Feb 05:47:16 05:51:13 46° 260° (W) 05:55:11 437.425
Cubesat XI-IV 02 Feb 05:53:39 05:58:57 56° 100° (E) 06:04:14 437.490
CUBESAT XI-V 02 Feb 05:55:37 06:00:10 61° 260° (W) 06:04:46 437.345
STRAND 1 02 Feb 06:07:36 06:12:41 68° 258° (WSW) 06:17:48 437.568
JAS-2 02 Feb 06:09:00 06:13:15 20° 294° (WNW) 06:17:35 435.910
CUTE-I 02 Feb 06:12:18 06:17:42 83° 103° (ESE) 06:23:06 437.470
